User: anonymous   Login
Location: Unspecified
(0.0000°N, 0.0000°E)
Time: 08:53:09
(UTC+00:00)
Language:

TBA - TO BE ASSIGNED - Orbit

View from above orbital plane
View from above orbital plane
View from above satellite
View from above satellite

Ground track
Ground track

The orbit is defined by the following mean orbital elements,

1 68981U          26145.47864647 +.00000000 +00000-0 +13431-3 0 00004
2 68981  97.7386  43.3346 0003564 205.7477 154.3565 14.91040877    07
Epoch (UTC): 25 May 2026 11:29:15
Eccentricity: 0.0003564
inclination: 97.7386°
perigee height: 592 km
apogee height: 597 km
right ascension of ascending node: 43.3346°
argument of perigee: 205.7477°
revolutions per day: 14.91040877
mean anomaly at epoch: 154.3565°

The dashed part of the orbit path shows where the satellite is in the earth's shadow,  

DLR